Time,TemperatureF,DewpointF,PressureIn,WindDirection,WindDirectionDegrees,WindSpeedMPH,WindSpeedGustMPH,Humidity,HourlyPrecipIn,Conditions,Clouds,dailyrainin,SoftwareType,DateUTC
2013-12-07 00:00:00,31.1,24.8,30.14,NE,37,0.0,2.0,77,0.00,,,0.00,VWS V14.01,2013-12-07 07:00:00,
2013-12-07 00:03:00,31.0,24.6,30.14,NE,36,3.0,3.0,77,0.00,,,0.00,VWS V14.01,2013-12-07 07:03:00,
2013-12-07 00:05:00,31.0,24.6,30.14,NE,36,2.0,3.0,77,0.00,,,0.00,VWS V14.01,2013-12-07 07:05:00,
2013-12-07 00:08:00,31.0,25.0,30.14,NE,36,1.0,3.0,78,0.00,,,0.00,VWS V14.01,2013-12-07 07:08:00,
2013-12-07 00:10:00,31.0,25.0,30.14,NE,36,0.0,3.0,78,0.00,,,0.00,VWS V14.01,2013-12-07 07:10:00,
2013-12-07 00:13:00,31.0,25.0,30.14,NE,36,1.0,1.0,78,0.00,,,0.00,VWS V14.01,2013-12-07 07:13:00,
2013-12-07 00:15:00,30.9,24.9,30.14,NE,36,2.0,2.0,78,0.00,,,0.00,VWS V14.01,2013-12-07 07:15:00,
2013-12-07 00:18:00,30.8,25.1,30.14,NNW,333,4.0,4.0,79,0.00,,,0.00,VWS V14.01,2013-12-07 07:18:00,
2013-12-07 00:20:00,30.7,25.0,30.14,NW,313,5.0,5.0,79,0.00,,,0.00,VWS V14.01,2013-12-07 07:20:00,
2013-12-07 00:23:00,30.7,25.0,30.14,NNW,340,3.0,5.0,79,0.00,,,0.00,VWS V14.01,2013-12-07 07:23:00,
2013-12-07 00:25:00,30.7,25.0,30.14,NNW,342,4.0,5.0,79,0.00,,,0.00,VWS V14.01,2013-12-07 07:25:00,
2013-12-07 00:28:00,30.7,25.3,30.14,NNW,347,1.0,4.0,80,0.00,,,0.00,VWS V14.01,2013-12-07 07:28:00,
2013-12-07 00:30:00,30.7,25.3,30.13,NNW,347,0.0,4.0,80,0.00,,,0.00,VWS V14.01,2013-12-07 07:30:00,
2013-12-07 00:33:00,30.7,25.3,30.13,NNW,346,1.0,3.0,80,0.00,,,0.00,VWS V14.01,2013-12-07 07:33:00,
2013-12-07 00:35:00,30.7,25.3,30.13,NNW,334,3.0,4.0,80,0.00,,,0.00,VWS V14.01,2013-12-07 07:35:00,
2013-12-07 00:38:00,30.8,25.4,30.13,NNW,340,3.0,4.0,80,0.00,,,0.00,VWS V14.01,2013-12-07 07:38:00,
2013-12-07 00:40:00,30.8,25.4,30.13,NNW,339,3.0,4.0,80,0.00,,,0.00,VWS V14.01,2013-12-07 07:40:00,
2013-12-07 00:43:00,30.9,25.2,30.13,NNW,345,3.0,4.0,79,0.00,,,0.00,VWS V14.01,2013-12-07 07:43:00,
2013-12-07 00:45:00,30.9,25.2,30.13,North,355,4.0,5.0,79,0.00,,,0.00,VWS V14.01,2013-12-07 07:45:00,
2013-12-07 00:48:00,31.1,25.4,30.13,North,355,2.0,5.0,79,0.00,,,0.00,VWS V14.01,2013-12-07 07:48:00,
2013-12-07 00:50:00,31.1,25.4,30.13,NNW,338,2.0,5.0,79,0.00,,,0.00,VWS V14.01,2013-12-07 07:50:00,
2013-12-07 00:53:00,31.3,25.2,30.12,NNW,339,4.0,5.0,78,0.00,,,0.00,VWS V14.01,2013-12-07 07:53:00,
2013-12-07 00:55:00,31.3,25.2,30.13,NNW,344,3.0,5.0,78,0.00,,,0.00,VWS V14.01,2013-12-07 07:55:00,
2013-12-07 00:58:00,31.5,25.4,30.12,North,350,2.0,4.0,78,0.00,,,0.00,VWS V14.01,2013-12-07 07:58:00,
2013-12-07 01:00:00,31.6,25.2,30.12,North,350,3.0,4.0,77,0.00,,,0.00,VWS V14.01,2013-12-07 08:00:00,
2013-12-07 01:03:00,31.8,25.4,30.12,NNW,345,1.0,5.0,77,0.00,,,0.00,VWS V14.01,2013-12-07 08:03:00,
2013-12-07 01:05:00,31.9,25.2,30.13,NNW,345,2.0,5.0,76,0.00,,,0.00,VWS V14.01,2013-12-07 08:05:00,
2013-12-07 01:08:00,32.0,25.3,30.12,NNW,346,3.0,4.0,76,0.00,,,0.00,VWS V14.01,2013-12-07 08:08:00,
2013-12-07 01:10:00,32.0,25.0,30.13,NNW,347,3.0,4.0,75,0.00,,,0.00,VWS V14.01,2013-12-07 08:10:00,
2013-12-07 01:13:00,32.3,25.0,30.13,NNW,342,2.0,4.0,74,0.00,,,0.00,VWS V14.01,2013-12-07 08:13:00,
2013-12-07 01:15:00,32.3,25.0,30.13,NNW,343,2.0,4.0,74,0.00,,,0.00,VWS V14.01,2013-12-07 08:15:00,
2013-12-07 01:18:00,32.5,24.8,30.12,NNW,345,2.0,4.0,73,0.00,,,0.00,VWS V14.01,2013-12-07 08:18:00,
2013-12-07 01:20:00,32.6,24.9,30.12,NNW,345,2.0,4.0,73,0.00,,,0.00,VWS V14.01,2013-12-07 08:20:00,
2013-12-07 01:23:00,32.7,24.7,30.12,NNW,345,1.0,3.0,72,0.00,,,0.00,VWS V14.01,2013-12-07 08:23:00,
2013-12-07 01:25:00,32.7,24.7,30.12,NNW,345,2.0,3.0,72,0.00,,,0.00,VWS V14.01,2013-12-07 08:25:00,
2013-12-07 01:28:00,32.6,24.9,30.12,NNW,345,0.0,3.0,73,0.00,,,0.00,VWS V14.01,2013-12-07 08:28:00,
2013-12-07 01:30:00,32.5,24.8,30.12,NNW,345,0.0,3.0,73,0.00,,,0.00,VWS V14.01,2013-12-07 08:30:00,
2013-12-07 01:33:00,32.1,24.8,30.12,NNW,345,0.0,0.0,74,0.00,,,0.00,VWS V14.01,2013-12-07 08:33:00,
2013-12-07 01:35:00,32.0,25.0,30.12,NNW,345,0.0,0.0,75,0.00,,,0.00,VWS V14.01,2013-12-07 08:35:00,
2013-12-07 01:38:00,31.6,24.6,30.12,NNW,345,1.0,2.0,75,0.00,,,0.00,VWS V14.01,2013-12-07 08:38:00,
2013-12-07 01:40:00,31.5,24.8,30.12,NNW,345,1.0,2.0,76,0.00,,,0.00,VWS V14.01,2013-12-07 08:40:00,
2013-12-07 01:43:00,31.2,24.8,30.13,NNW,345,0.0,3.0,77,0.00,,,0.00,VWS V14.01,2013-12-07 08:43:00,
2013-12-07 01:45:00,31.1,24.8,30.13,NNW,345,0.0,3.0,77,0.00,,,0.00,VWS V14.01,2013-12-07 08:45:00,
2013-12-07 01:48:00,31.0,25.0,30.13,NNW,345,0.0,0.0,78,0.00,,,0.00,VWS V14.01,2013-12-07 08:48:00,
2013-12-07 01:50:00,30.9,24.9,30.13,NNW,345,0.0,0.0,78,0.00,,,0.00,VWS V14.01,2013-12-07 08:50:00,
2013-12-07 01:53:00,30.7,24.7,30.13,NNW,345,0.0,1.0,78,0.00,,,0.00,VWS V14.01,2013-12-07 08:53:00,
2013-12-07 01:55:00,30.7,25.0,30.13,NNW,345,0.0,1.0,79,0.00,,,0.00,VWS V14.01,2013-12-07 08:55:00,
2013-12-07 01:58:00,30.5,24.8,30.13,NNW,345,2.0,3.0,79,0.00,,,0.00,VWS V14.01,2013-12-07 08:58:00,
2013-12-07 02:00:00,30.5,24.8,30.13,NNW,345,2.0,3.0,79,0.00,,,0.00,VWS V14.01,2013-12-07 09:00:00,
2013-12-07 02:03:00,30.6,24.9,30.13,NNW,345,1.0,3.0,79,0.00,,,0.00,VWS V14.01,2013-12-07 09:03:00,
2013-12-07 02:05:00,30.7,25.3,30.13,NNW,345,2.0,3.0,80,0.00,,,0.00,VWS V14.01,2013-12-07 09:05:00,
2013-12-07 02:08:00,30.8,25.4,30.14,NNW,345,0.0,2.0,80,0.00,,,0.00,VWS V14.01,2013-12-07 09:08:00,
2013-12-07 02:10:00,30.8,25.4,30.14,NNW,345,0.0,2.0,80,0.00,,,0.00,VWS V14.01,2013-12-07 09:10:00,
2013-12-07 02:13:00,30.6,24.9,30.14,NNW,345,1.0,2.0,79,0.00,,,0.00,VWS V14.01,2013-12-07 09:13:00,
2013-12-07 02:15:00,30.7,25.0,30.14,NNW,345,0.0,2.0,79,0.00,,,0.00,VWS V14.01,2013-12-07 09:15:00,
2013-12-07 02:18:00,30.8,24.8,30.14,NNW,345,2.0,2.0,78,0.00,,,0.00,VWS V14.01,2013-12-07 09:18:00,
2013-12-07 02:20:00,30.9,24.9,30.14,NNW,345,1.0,2.0,78,0.00,,,0.00,VWS V14.01,2013-12-07 09:20:00,
2013-12-07 02:23:00,31.6,24.9,30.14,NNW,345,0.0,1.0,76,0.00,,,0.00,VWS V14.01,2013-12-07 09:23:00,
2013-12-07 02:25:00,31.7,24.7,30.14,NNW,345,0.0,1.0,75,0.00,,,0.00,VWS V14.01,2013-12-07 09:25:00,
2013-12-07 02:28:00,32.0,24.7,30.14,NNW,345,0.0,0.0,74,0.00,,,0.00,VWS V14.01,2013-12-07 09:28:00,
2013-12-07 02:30:00,32.1,24.8,30.14,NNW,345,1.0,2.0,74,0.00,,,0.00,VWS V14.01,2013-12-07 09:30:00,
2013-12-07 02:33:00,32.1,24.8,30.14,NNW,345,0.0,2.0,74,0.00,,,0.00,VWS V14.01,2013-12-07 09:33:00,
2013-12-07 02:35:00,32.0,24.7,30.14,NNW,345,0.0,2.0,74,0.00,,,0.00,VWS V14.01,2013-12-07 09:35:00,
2013-12-07 02:38:00,32.0,24.7,30.14,NNW,345,0.0,0.0,74,0.00,,,0.00,VWS V14.01,2013-12-07 09:38:00,
2013-12-07 02:40:00,32.0,24.3,30.14,NNW,345,0.0,0.0,73,0.00,,,0.00,VWS V14.01,2013-12-07 09:40:00,
2013-12-07 02:43:00,32.1,24.8,30.14,NNW,345,0.0,1.0,74,0.00,,,0.00,VWS V14.01,2013-12-07 09:43:00,
2013-12-07 02:45:00,32.1,24.4,30.14,NNW,345,1.0,2.0,73,0.00,,,0.00,VWS V14.01,2013-12-07 09:45:00,
2013-12-07 02:48:00,31.9,24.6,30.14,NNW,345,2.0,2.0,74,0.00,,,0.00,VWS V14.01,2013-12-07 09:48:00,
2013-12-07 02:50:00,31.8,24.5,30.14,NNW,345,2.0,2.0,74,0.00,,,0.00,VWS V14.01,2013-12-07 09:50:00,
2013-12-07 02:53:00,31.6,24.3,30.14,NNW,345,0.0,3.0,74,0.00,,,0.00,VWS V14.01,2013-12-07 09:53:00,
2013-12-07 02:55:00,31.4,24.1,30.14,NNW,345,0.0,3.0,74,0.00,,,0.00,VWS V14.01,2013-12-07 09:55:00,
2013-12-07 02:58:00,30.7,24.4,30.14,NNW,345,0.0,1.0,77,0.00,,,0.00,VWS V14.01,2013-12-07 09:58:00,
2013-12-07 03:00:00,30.5,24.2,30.14,NNW,345,0.0,1.0,77,0.00,,,0.00,VWS V14.01,2013-12-07 10:00:00,
2013-12-07 03:03:00,30.0,24.0,30.14,NNW,345,0.0,2.0,78,0.00,,,0.00,VWS V14.01,2013-12-07 10:03:00,
2013-12-07 03:05:00,29.9,23.9,30.14,NNW,345,0.0,2.0,78,0.00,,,0.00,VWS V14.01,2013-12-07 10:05:00,
2013-12-07 03:08:00,29.7,24.0,30.14,NNW,345,2.0,2.0,79,0.00,,,0.00,VWS V14.01,2013-12-07 10:08:00,
2013-12-07 03:10:00,29.6,23.9,30.14,NNW,345,1.0,2.0,79,0.00,,,0.00,VWS V14.01,2013-12-07 10:10:00,
2013-12-07 03:13:00,29.5,24.1,30.14,NNW,345,2.0,3.0,80,0.00,,,0.00,VWS V14.01,2013-12-07 10:13:00,
2013-12-07 03:15:00,29.5,24.1,30.14,NNW,345,1.0,3.0,80,0.00,,,0.00,VWS V14.01,2013-12-07 10:15:00,
2013-12-07 03:18:00,29.7,24.3,30.14,NNE,19,3.0,4.0,80,0.00,,,0.00,VWS V14.01,2013-12-07 10:18:00,
2013-12-07 03:20:00,29.8,24.4,30.14,North,355,2.0,5.0,80,0.00,,,0.00,VWS V14.01,2013-12-07 10:20:00,
2013-12-07 03:23:00,30.0,24.3,30.14,North,350,2.0,4.0,79,0.00,,,0.00,VWS V14.01,2013-12-07 10:23:00,
2013-12-07 03:25:00,30.1,24.4,30.13,North,355,4.0,4.0,79,0.00,,,0.00,VWS V14.01,2013-12-07 10:25:00,
2013-12-07 03:28:00,30.2,24.5,30.14,NNW,346,1.0,4.0,79,0.00,,,0.00,VWS V14.01,2013-12-07 10:28:00,
2013-12-07 03:30:00,30.3,24.6,30.13,NNW,346,2.0,4.0,79,0.00,,,0.00,VWS V14.01,2013-12-07 10:30:00,
2013-12-07 03:33:00,30.5,24.5,30.14,NNW,346,1.0,2.0,78,0.00,,,0.00,VWS V14.01,2013-12-07 10:33:00,
2013-12-07 03:35:00,30.5,24.5,30.13,NNW,346,0.0,2.0,78,0.00,,,0.00,VWS V14.01,2013-12-07 10:35:00,
2013-12-07 03:38:00,30.3,24.3,30.13,NNW,346,2.0,2.0,78,0.00,,,0.00,VWS V14.01,2013-12-07 10:38:00,
2013-12-07 03:40:00,30.2,24.2,30.13,NNW,346,2.0,2.0,78,0.00,,,0.00,VWS V14.01,2013-12-07 10:40:00,
2013-12-07 03:43:00,29.9,24.2,30.13,NNW,345,2.0,3.0,79,0.00,,,0.00,VWS V14.01,2013-12-07 10:43:00,
2013-12-07 03:45:00,29.8,24.1,30.13,NNW,345,2.0,3.0,79,0.00,,,0.00,VWS V14.01,2013-12-07 10:45:00,
2013-12-07 03:48:00,29.9,24.2,30.13,NNW,346,1.0,3.0,79,0.00,,,0.00,VWS V14.01,2013-12-07 10:48:00,
2013-12-07 03:50:00,29.9,24.2,30.13,NNW,346,2.0,3.0,79,0.00,,,0.00,VWS V14.01,2013-12-07 10:50:00,
2013-12-07 03:53:00,30.2,24.5,30.13,NNW,345,3.0,3.0,79,0.00,,,0.00,VWS V14.01,2013-12-07 10:53:00,
2013-12-07 03:55:00,30.3,24.6,30.13,NNW,345,3.0,3.0,79,0.00,,,0.00,VWS V14.01,2013-12-07 10:55:00,
2013-12-07 03:58:00,30.7,24.7,30.12,NNW,346,0.0,3.0,78,0.00,,,0.00,VWS V14.01,2013-12-07 10:58:00,
2013-12-07 04:00:00,30.7,24.7,30.12,NNW,346,2.0,3.0,78,0.00,,,0.00,VWS V14.01,2013-12-07 11:00:00,
2013-12-07 04:03:00,31.1,24.8,30.12,NNW,346,0.0,2.0,77,0.00,,,0.00,VWS V14.01,2013-12-07 11:03:00,
2013-12-07 04:05:00,31.2,24.5,30.12,NNW,346,2.0,2.0,76,0.00,,,0.00,VWS V14.01,2013-12-07 11:05:00,
2013-12-07 04:08:00,31.3,24.6,30.12,NNW,346,1.0,2.0,76,0.00,,,0.00,VWS V14.01,2013-12-07 11:08:00,
2013-12-07 04:10:00,31.3,24.6,30.12,NNW,346,1.0,2.0,76,0.00,,,0.00,VWS V14.01,2013-12-07 11:10:00,
2013-12-07 04:13:00,31.4,24.1,30.12,NNW,345,3.0,3.0,74,0.00,,,0.00,VWS V14.01,2013-12-07 11:13:00,
2013-12-07 04:15:00,31.5,24.2,30.12,NNW,345,2.0,3.0,74,0.00,,,0.00,VWS V14.01,2013-12-07 11:15:00,
2013-12-07 04:18:00,31.7,24.4,30.12,NNW,345,2.0,3.0,74,0.00,,,0.00,VWS V14.01,2013-12-07 11:18:00,
2013-12-07 04:20:00,31.9,24.2,30.12,NNW,345,0.0,3.0,73,0.00,,,0.00,VWS V14.01,2013-12-07 11:20:00,
2013-12-07 04:24:00,32.0,24.3,30.11,NNW,345,3.0,3.0,73,0.00,,,0.00,VWS V14.01,2013-12-07 11:24:00,
2013-12-07 04:25:00,32.1,24.1,30.11,NNW,345,1.0,3.0,72,0.00,,,0.00,VWS V14.01,2013-12-07 11:25:00,
2013-12-07 04:29:00,32.0,24.0,30.11,NNW,345,2.0,3.0,72,0.00,,,0.00,VWS V14.01,2013-12-07 11:29:00,
2013-12-07 04:30:00,32.0,24.0,30.11,NNW,345,2.0,3.0,72,0.00,,,0.00,VWS V14.01,2013-12-07 11:30:00,
2013-12-07 04:34:00,31.9,23.6,30.11,NNW,347,2.0,4.0,71,0.00,,,0.00,VWS V14.01,2013-12-07 11:34:00,
2013-12-07 04:35:00,32.0,23.7,30.11,NNW,346,4.0,4.0,71,0.00,,,0.00,VWS V14.01,2013-12-07 11:35:00,
2013-12-07 04:39:00,32.2,23.9,30.11,NNW,347,1.0,4.0,71,0.00,,,0.00,VWS V14.01,2013-12-07 11:39:00,
2013-12-07 04:40:00,32.3,24.0,30.11,NNW,347,1.0,4.0,71,0.00,,,0.00,VWS V14.01,2013-12-07 11:40:00,
2013-12-07 04:44:00,32.4,24.1,30.11,NNW,348,1.0,2.0,71,0.00,,,0.00,VWS V14.01,2013-12-07 11:44:00,
2013-12-07 04:45:00,32.4,24.1,30.11,NNW,348,2.0,2.0,71,0.00,,,0.00,VWS V14.01,2013-12-07 11:45:00,
2013-12-07 04:49:00,32.5,24.2,30.10,NNW,348,1.0,4.0,71,0.00,,,0.00,VWS V14.01,2013-12-07 11:49:00,
2013-12-07 04:50:00,32.4,24.1,30.10,NNW,348,0.0,4.0,71,0.00,,,0.00,VWS V14.01,2013-12-07 11:50:00,
2013-12-07 04:54:00,32.1,23.8,30.11,NNW,348,0.0,1.0,71,0.00,,,0.00,VWS V14.01,2013-12-07 11:54:00,
2013-12-07 04:55:00,32.0,23.7,30.11,NNW,348,0.0,1.0,71,0.00,,,0.00,VWS V14.01,2013-12-07 11:55:00,
2013-12-07 04:59:00,31.3,23.7,30.11,NNW,348,0.0,0.0,73,0.00,,,0.00,VWS V14.01,2013-12-07 11:59:00,
2013-12-07 05:00:00,31.2,23.6,30.11,NNW,348,0.0,0.0,73,0.00,,,0.00,VWS V14.01,2013-12-07 12:00:00,
2013-12-07 05:04:00,31.2,23.9,30.11,NNW,348,0.0,1.0,74,0.00,,,0.00,VWS V14.01,2013-12-07 12:04:00,
2013-12-07 05:05:00,31.1,23.8,30.11,NNW,348,0.0,1.0,74,0.00,,,0.00,VWS V14.01,2013-12-07 12:05:00,
2013-12-07 05:09:00,30.5,23.5,30.11,NNW,348,1.0,1.0,75,0.00,,,0.00,VWS V14.01,2013-12-07 12:09:00,
2013-12-07 05:10:00,30.5,23.9,30.11,NNW,348,1.0,1.0,76,0.00,,,0.00,VWS V14.01,2013-12-07 12:10:00,
2013-12-07 05:14:00,30.4,24.1,30.11,NNW,348,1.0,3.0,77,0.00,,,0.00,VWS V14.01,2013-12-07 12:14:00,
2013-12-07 05:15:00,30.4,24.1,30.11,NNW,348,1.0,3.0,77,0.00,,,0.00,VWS V14.01,2013-12-07 12:15:00,
2013-12-07 05:19:00,30.2,23.9,30.11,NNW,348,2.0,2.0,77,0.00,,,0.00,VWS V14.01,2013-12-07 12:19:00,
2013-12-07 05:20:00,30.1,23.8,30.11,NNW,348,2.0,2.0,77,0.00,,,0.00,VWS V14.01,2013-12-07 12:20:00,
2013-12-07 05:24:00,30.0,24.0,30.12,NNW,348,0.0,2.0,78,0.00,,,0.00,VWS V14.01,2013-12-07 12:24:00,
2013-12-07 05:25:00,30.0,24.0,30.12,NNW,348,1.0,2.0,78,0.00,,,0.00,VWS V14.01,2013-12-07 12:25:00,
2013-12-07 05:29:00,30.0,24.0,30.12,NNW,348,0.0,1.0,78,0.00,,,0.00,VWS V14.01,2013-12-07 12:29:00,
2013-12-07 05:30:00,30.0,24.0,30.12,NNW,348,0.0,1.0,78,0.00,,,0.00,VWS V14.01,2013-12-07 12:30:00,
2013-12-07 05:34:00,29.7,23.7,30.12,NNW,348,0.0,0.0,78,0.00,,,0.00,VWS V14.01,2013-12-07 12:34:00,
2013-12-07 05:35:00,29.8,23.8,30.12,NNW,348,0.0,0.0,78,0.00,,,0.00,VWS V14.01,2013-12-07 12:35:00,
2013-12-07 05:39:00,30.1,24.4,30.12,NNW,348,0.0,0.0,79,0.00,,,0.00,VWS V14.01,2013-12-07 12:39:00,
2013-12-07 05:40:00,30.2,24.5,30.12,NNW,348,0.0,0.0,79,0.00,,,0.00,VWS V14.01,2013-12-07 12:40:00,
2013-12-07 05:44:00,30.7,24.7,30.12,NNW,348,0.0,0.0,78,0.00,,,0.00,VWS V14.01,2013-12-07 12:44:00,
2013-12-07 05:45:00,30.7,24.7,30.12,NNW,348,0.0,0.0,78,0.00,,,0.00,VWS V14.01,2013-12-07 12:45:00,
2013-12-07 05:49:00,31.1,24.4,30.12,NNW,348,0.0,0.0,76,0.00,,,0.00,VWS V14.01,2013-12-07 12:49:00,
2013-12-07 05:50:00,31.2,24.5,30.12,NNW,348,0.0,0.0,76,0.00,,,0.00,VWS V14.01,2013-12-07 12:50:00,
2013-12-07 05:54:00,31.6,24.3,30.11,NNW,348,0.0,0.0,74,0.00,,,0.00,VWS V14.01,2013-12-07 12:54:00,
2013-12-07 05:55:00,31.6,24.3,30.11,NNW,348,0.0,0.0,74,0.00,,,0.00,VWS V14.01,2013-12-07 12:55:00,
2013-12-07 05:59:00,31.9,24.6,30.11,NNW,348,0.0,0.0,74,0.00,,,0.00,VWS V14.01,2013-12-07 12:59:00,
2013-12-07 06:00:00,31.9,24.6,30.11,NNW,348,0.0,0.0,74,0.00,,,0.00,VWS V14.01,2013-12-07 13:00:00,
2013-12-07 06:04:00,32.1,24.8,30.11,NNW,348,0.0,0.0,74,0.00,,,0.00,VWS V14.01,2013-12-07 13:04:00,
2013-12-07 06:05:00,32.1,24.8,30.11,NNW,348,0.0,1.0,74,0.00,,,0.00,VWS V14.01,2013-12-07 13:05:00,
2013-12-07 06:09:00,32.0,25.0,30.11,NNW,348,1.0,2.0,75,0.00,,,0.00,VWS V14.01,2013-12-07 13:09:00,
2013-12-07 06:10:00,32.0,24.7,30.11,NNW,348,1.0,2.0,74,0.00,,,0.00,VWS V14.01,2013-12-07 13:10:00,
2013-12-07 06:14:00,32.1,24.4,30.11,NNW,348,2.0,3.0,73,0.00,,,0.00,VWS V14.01,2013-12-07 13:14:00,
2013-12-07 06:15:00,32.1,24.4,30.11,NNW,348,1.0,3.0,73,0.00,,,0.00,VWS V14.01,2013-12-07 13:15:00,
2013-12-07 06:19:00,32.0,24.3,30.11,NNW,348,1.0,2.0,73,0.00,,,0.00,VWS V14.01,2013-12-07 13:19:00,
2013-12-07 06:20:00,32.0,24.3,30.11,NNW,348,1.0,2.0,73,0.00,,,0.00,VWS V14.01,2013-12-07 13:20:00,
2013-12-07 06:24:00,32.0,24.3,30.11,NNW,348,1.0,3.0,73,0.00,,,0.00,VWS V14.01,2013-12-07 13:24:00,
2013-12-07 06:25:00,32.0,24.3,30.11,NNW,348,1.0,3.0,73,0.00,,,0.00,VWS V14.01,2013-12-07 13:25:00,
2013-12-07 06:29:00,32.0,24.7,30.12,NNW,348,0.0,2.0,74,0.00,,,0.00,VWS V14.01,2013-12-07 13:29:00,
2013-12-07 06:30:00,32.0,24.7,30.12,NNW,348,1.0,2.0,74,0.00,,,0.00,VWS V14.01,2013-12-07 13:30:00,
2013-12-07 06:34:00,31.6,24.6,30.11,NNW,348,0.0,1.0,75,0.00,,,0.00,VWS V14.01,2013-12-07 13:34:00,
2013-12-07 06:35:00,31.5,24.5,30.11,NNW,348,0.0,1.0,75,0.00,,,0.00,VWS V14.01,2013-12-07 13:35:00,
2013-12-07 06:39:00,30.6,24.0,30.11,NNW,348,0.0,1.0,76,0.00,,,0.00,VWS V14.01,2013-12-07 13:39:00,
2013-12-07 06:40:00,30.4,23.8,30.11,NNW,348,0.0,1.0,76,0.00,,,0.00,VWS V14.01,2013-12-07 13:40:00,
2013-12-07 06:44:00,29.9,23.9,30.11,NNW,348,0.0,0.0,78,0.00,,,0.00,VWS V14.01,2013-12-07 13:44:00,
2013-12-07 06:45:00,29.9,23.9,30.11,NNW,348,0.0,0.0,78,0.00,,,0.00,VWS V14.01,2013-12-07 13:45:00,
2013-12-07 06:49:00,29.7,24.0,30.11,NNW,348,1.0,2.0,79,0.00,,,0.00,VWS V14.01,2013-12-07 13:49:00,
2013-12-07 06:50:00,29.7,24.0,30.11,NNW,348,0.0,2.0,79,0.00,,,0.00,VWS V14.01,2013-12-07 13:50:00,
2013-12-07 06:54:00,29.7,24.0,30.11,NNW,348,1.0,2.0,79,0.00,,,0.00,VWS V14.01,2013-12-07 13:54:00,
2013-12-07 06:55:00,29.7,24.0,30.11,NNW,348,1.0,2.0,79,0.00,,,0.00,VWS V14.01,2013-12-07 13:55:00,
2013-12-07 06:59:00,29.8,24.4,30.11,NNW,348,0.0,2.0,80,0.00,,,0.00,VWS V14.01,2013-12-07 13:59:00,
2013-12-07 07:00:00,29.7,24.3,30.11,NNW,348,0.0,2.0,80,0.00,,,0.00,VWS V14.01,2013-12-07 14:00:00,
2013-12-07 07:04:00,30.0,24.6,30.11,NNW,348,1.0,2.0,80,0.00,,,0.00,VWS V14.01,2013-12-07 14:04:00,
2013-12-07 07:05:00,30.1,24.7,30.11,NNW,348,0.0,2.0,80,0.00,,,0.00,VWS V14.01,2013-12-07 14:05:00,
2013-12-07 07:09:00,30.5,25.1,30.11,NNW,348,0.0,1.0,80,0.00,,,0.00,VWS V14.01,2013-12-07 14:09:00,
2013-12-07 07:10:00,30.6,25.2,30.11,NNW,348,0.0,1.0,80,0.00,,,0.00,VWS V14.01,2013-12-07 14:10:00,
2013-12-07 07:14:00,31.6,25.2,30.11,NNW,348,2.0,2.0,77,0.00,,,0.00,VWS V14.01,2013-12-07 14:14:00,
2013-12-07 07:15:00,31.8,25.1,30.11,NNW,348,3.0,3.0,76,0.00,,,0.00,VWS V14.01,2013-12-07 14:15:00,
2013-12-07 07:19:00,32.0,25.6,30.11,NNW,348,0.0,3.0,77,0.00,,,0.00,VWS V14.01,2013-12-07 14:19:00,
2013-12-07 07:20:00,31.9,25.5,30.11,NNW,348,1.0,3.0,77,0.00,,,0.00,VWS V14.01,2013-12-07 14:20:00,
2013-12-07 07:24:00,31.4,25.4,30.11,NE,38,1.0,4.0,78,0.00,,,0.00,VWS V14.01,2013-12-07 14:24:00,
2013-12-07 07:25:00,31.4,25.6,30.11,NE,38,1.0,4.0,79,0.00,,,0.00,VWS V14.01,2013-12-07 14:25:00,
2013-12-07 07:29:00,32.1,26.0,30.12,NE,40,1.0,2.0,78,0.00,,,0.00,VWS V14.01,2013-12-07 14:29:00,
2013-12-07 07:30:00,32.2,26.1,30.12,NE,40,2.0,2.0,78,0.00,,,0.00,VWS V14.01,2013-12-07 14:30:00,
2013-12-07 07:34:00,32.6,26.2,30.12,NE,40,2.0,2.0,77,0.00,,,0.00,VWS V14.01,2013-12-07 14:34:00,
2013-12-07 07:35:00,32.8,26.4,30.12,NE,40,1.0,3.0,77,0.00,,,0.00,VWS V14.01,2013-12-07 14:35:00,
2013-12-07 07:39:00,33.7,26.3,30.12,NE,41,0.0,3.0,74,0.00,,,0.00,VWS V14.01,2013-12-07 14:39:00,
2013-12-07 07:40:00,33.9,26.5,30.12,NE,41,0.0,3.0,74,0.00,,,0.00,VWS V14.01,2013-12-07 14:40:00,
2013-12-07 07:45:00,34.6,26.5,30.12,NE,41,0.0,1.0,72,0.00,,,0.00,VWS V14.01,2013-12-07 14:45:00,
2013-12-07 07:49:00,35.4,27.0,30.12,NE,41,0.0,1.0,71,0.00,,,0.00,VWS V14.01,2013-12-07 14:49:00,
2013-12-07 07:50:00,35.5,26.4,30.12,NE,41,0.0,1.0,69,0.00,,,0.00,VWS V14.01,2013-12-07 14:50:00,
2013-12-07 07:55:00,36.4,26.9,30.12,NE,41,0.0,0.0,68,0.00,,,0.00,VWS V14.01,2013-12-07 14:55:00,
2013-12-07 07:59:00,36.6,27.0,30.12,NE,41,0.0,0.0,68,0.00,,,0.00,VWS V14.01,2013-12-07 14:59:00,
2013-12-07 08:05:00,37.6,27.3,30.12,NE,41,0.0,2.0,66,0.00,,,0.00,VWS V14.01,2013-12-07 15:05:00,
2013-12-07 08:10:00,38.0,27.3,30.12,NE,41,0.0,1.0,65,0.00,,,0.00,VWS V14.01,2013-12-07 15:10:00,
2013-12-07 08:14:00,38.4,26.9,30.12,NE,41,0.0,0.0,63,0.00,,,0.00,VWS V14.01,2013-12-07 15:14:00,
2013-12-07 08:15:00,38.4,26.9,30.12,NE,41,1.0,1.0,63,0.00,,,0.00,VWS V14.01,2013-12-07 15:15:00,
2013-12-07 08:17:00,34.6,26.5,30.12,NE,41,1.0,1.0,72,0.00,,,0.00,VWS V14.01,2013-12-07 15:17:00,
2013-12-07 08:20:00,39.0,27.1,30.12,NNE,26,4.0,4.0,62,0.00,,,0.00,VWS V14.01,2013-12-07 15:20:00,
2013-12-07 08:24:00,39.2,26.9,30.12,North,355,1.0,5.0,61,0.00,,,0.00,VWS V14.01,2013-12-07 15:24:00,
2013-12-07 08:25:00,39.3,26.6,30.12,North,355,0.0,5.0,60,0.00,,,0.00,VWS V14.01,2013-12-07 15:25:00,
2013-12-07 08:27:00,36.3,27.1,30.12,NE,41,0.0,0.0,69,0.00,,,0.00,VWS V14.01,2013-12-07 15:27:00,
2013-12-07 08:33:00,36.8,27.2,30.12,NE,41,1.0,1.0,68,0.00,,,0.00,VWS V14.01,2013-12-07 15:33:00,
2013-12-07 08:35:00,40.6,27.0,30.12,West,271,1.0,4.0,58,0.00,,,0.00,VWS V14.01,2013-12-07 15:35:00,
2013-12-07 08:42:00,37.8,27.1,30.12,NE,41,0.0,1.0,65,0.00,,,0.00,VWS V14.01,2013-12-07 15:42:00,
2013-12-07 08:45:00,41.6,27.1,30.13,West,275,0.0,2.0,56,0.00,,,0.00,VWS V14.01,2013-12-07 15:45:00,
2013-12-07 08:49:00,41.9,26.9,30.13,West,275,0.0,0.0,55,0.00,,,0.00,VWS V14.01,2013-12-07 15:49:00,
2013-12-07 08:50:00,42.0,27.0,30.13,West,275,0.0,0.0,55,0.00,,,0.00,VWS V14.01,2013-12-07 15:50:00,
2013-12-07 08:52:00,38.8,26.9,30.12,NE,40,0.0,2.0,62,0.00,,,0.00,VWS V14.01,2013-12-07 15:52:00,
2013-12-07 08:55:00,42.5,27.0,30.13,West,275,0.0,1.0,54,0.00,,,0.00,VWS V14.01,2013-12-07 15:55:00,
2013-12-07 09:00:00,43.2,27.7,30.13,West,275,0.0,1.0,54,0.00,,,0.00,VWS V14.01,2013-12-07 16:00:00,
2013-12-07 09:02:00,39.8,26.7,30.12,West,259,1.0,3.0,59,0.00,,,0.00,VWS V14.01,2013-12-07 16:02:00,
2013-12-07 09:04:00,42.5,27.0,30.13,West,275,0.0,2.0,54,0.00,,,0.00,VWS V14.01,2013-12-07 16:04:00,
2013-12-07 09:05:00,42.7,27.7,30.13,West,275,0.0,2.0,55,0.00,,,0.00,VWS V14.01,2013-12-07 16:05:00,
2013-12-07 09:07:00,40.4,27.2,30.12,West,271,0.0,4.0,59,0.00,,,0.00,VWS V14.01,2013-12-07 16:07:00,
2013-12-07 09:10:00,43.5,27.5,30.13,West,275,0.0,2.0,53,0.00,,,0.00,VWS V14.01,2013-12-07 16:10:00,
2013-12-07 09:12:00,41.1,27.0,30.12,West,275,0.0,3.0,57,0.00,,,0.00,VWS V14.01,2013-12-07 16:12:00,
2013-12-07 09:17:00,41.6,27.1,30.13,West,275,0.0,2.0,56,0.00,,,0.00,VWS V14.01,2013-12-07 16:17:00,
2013-12-07 09:19:00,43.4,27.4,30.14,West,276,2.0,2.0,53,0.00,,,0.00,VWS V14.01,2013-12-07 16:19:00,
2013-12-07 09:20:00,43.4,27.4,30.14,West,276,0.0,2.0,53,0.00,,,0.00,VWS V14.01,2013-12-07 16:20:00,
2013-12-07 09:24:00,43.8,27.3,30.14,West,276,0.0,2.0,52,0.00,,,0.00,VWS V14.01,2013-12-07 16:24:00,
2013-12-07 09:25:00,43.8,27.3,30.14,West,276,0.0,2.0,52,0.00,,,0.00,VWS V14.01,2013-12-07 16:25:00,
2013-12-07 09:27:00,42.4,27.0,30.13,West,275,1.0,1.0,54,0.00,,,0.00,VWS V14.01,2013-12-07 16:27:00,
2013-12-07 09:29:00,44.5,27.5,30.14,West,276,0.0,2.0,51,0.00,,,0.00,VWS V14.01,2013-12-07 16:29:00,
2013-12-07 09:30:00,44.6,27.1,30.14,West,275,3.0,3.0,50,0.00,,,0.00,VWS V14.01,2013-12-07 16:30:00,
2013-12-07 09:32:00,43.2,27.2,30.13,West,275,0.0,1.0,53,0.00,,,0.00,VWS V14.01,2013-12-07 16:32:00,
2013-12-07 09:34:00,44.6,26.1,30.14,West,276,0.0,3.0,48,0.00,,,0.00,VWS V14.01,2013-12-07 16:34:00,
2013-12-07 09:35:00,44.5,26.5,30.14,West,276,0.0,3.0,49,0.00,,,0.00,VWS V14.01,2013-12-07 16:35:00,
2013-12-07 09:39:00,45.9,27.8,30.14,WSW,249,0.0,3.0,49,0.00,,,0.00,VWS V14.01,2013-12-07 16:39:00,
2013-12-07 09:40:00,46.0,27.4,30.14,WSW,249,0.0,3.0,48,0.00,,,0.00,VWS V14.01,2013-12-07 16:40:00,
2013-12-07 09:42:00,43.5,27.5,30.13,West,275,0.0,2.0,53,0.00,,,0.00,VWS V14.01,2013-12-07 16:42:00,
2013-12-07 09:44:00,46.2,27.1,30.14,WSW,249,1.0,2.0,47,0.00,,,0.00,VWS V14.01,2013-12-07 16:44:00,
2013-12-07 09:45:00,46.3,27.2,30.14,WSW,251,1.0,2.0,47,0.00,,,0.00,VWS V14.01,2013-12-07 16:45:00,
2013-12-07 09:47:00,43.8,26.9,30.13,West,275,1.0,2.0,51,0.00,,,0.00,VWS V14.01,2013-12-07 16:47:00,
2013-12-07 09:49:00,47.0,27.8,30.14,SW,227,2.0,6.0,47,0.00,,,0.00,VWS V14.01,2013-12-07 16:49:00,
2013-12-07 09:50:00,47.0,27.8,30.14,SW,227,3.0,6.0,47,0.00,,,0.00,VWS V14.01,2013-12-07 16:50:00,
2013-12-07 09:54:00,46.9,26.7,30.14,SW,226,3.0,7.0,45,0.00,,,0.00,VWS V14.01,2013-12-07 16:54:00,
2013-12-07 09:55:00,47.0,27.3,30.14,SW,227,5.0,7.0,46,0.00,,,0.00,VWS V14.01,2013-12-07 16:55:00,
2013-12-07 09:59:00,47.2,27.0,30.14,SSW,211,2.0,6.0,45,0.00,,,0.00,VWS V14.01,2013-12-07 16:59:00,
2013-12-07 10:00:00,47.2,27.0,30.14,SSW,211,1.0,6.0,45,0.00,,,0.00,VWS V14.01,2013-12-07 17:00:00,
2013-12-07 10:04:00,47.9,28.1,30.14,SW,227,0.0,7.0,46,0.00,,,0.00,VWS V14.01,2013-12-07 17:04:00,
2013-12-07 10:05:00,48.1,28.8,30.14,SW,227,1.0,7.0,47,0.00,,,0.00,VWS V14.01,2013-12-07 17:05:00,
2013-12-07 10:09:00,48.4,27.5,30.14,SSW,205,5.0,6.0,44,0.00,,,0.00,VWS V14.01,2013-12-07 17:09:00,
2013-12-07 10:10:00,48.2,27.3,30.14,SSW,204,2.0,6.0,44,0.00,,,0.00,VWS V14.01,2013-12-07 17:10:00,
2013-12-07 10:14:00,48.1,27.2,30.14,SSE,147,4.0,7.0,44,0.00,,,0.00,VWS V14.01,2013-12-07 17:14:00,
2013-12-07 10:15:00,47.9,26.5,30.14,SSE,165,1.0,7.0,43,0.00,,,0.00,VWS V14.01,2013-12-07 17:15:00,
2013-12-07 10:19:00,48.4,28.0,30.14,SW,221,3.0,6.0,45,0.00,,,0.00,VWS V14.01,2013-12-07 17:19:00,
2013-12-07 10:20:00,48.5,28.1,30.14,SW,221,1.0,6.0,45,0.00,,,0.00,VWS V14.01,2013-12-07 17:20:00,
2013-12-07 10:24:00,48.7,27.2,30.14,SW,228,1.0,6.0,43,0.00,,,0.00,VWS V14.01,2013-12-07 17:24:00,
2013-12-07 10:25:00,48.7,27.2,30.14,SW,229,5.0,6.0,43,0.00,,,0.00,VWS V14.01,2013-12-07 17:25:00,
2013-12-07 10:29:00,48.9,27.4,30.14,SSW,201,1.0,6.0,43,0.00,,,0.00,VWS V14.01,2013-12-07 17:29:00,
2013-12-07 10:30:00,49.0,28.0,30.14,SSW,206,2.0,6.0,44,0.00,,,0.00,VWS V14.01,2013-12-07 17:30:00,
2013-12-07 10:34:00,49.1,28.1,30.13,SSW,211,4.0,9.0,44,0.00,,,0.00,VWS V14.01,2013-12-07 17:34:00,
2013-12-07 10:35:00,49.1,28.1,30.14,SSW,213,2.0,9.0,44,0.00,,,0.00,VWS V14.01,2013-12-07 17:35:00,
2013-12-07 10:39:00,49.5,28.0,30.13,WSW,237,2.0,8.0,43,0.00,,,0.00,VWS V14.01,2013-12-07 17:39:00,
2013-12-07 10:40:00,49.6,28.0,30.13,SW,236,2.0,8.0,43,0.00,,,0.00,VWS V14.01,2013-12-07 17:40:00,
2013-12-07 10:44:00,50.0,27.8,30.13,SSW,199,6.0,8.0,42,0.00,,,0.00,VWS V14.01,2013-12-07 17:44:00,
2013-12-07 10:45:00,49.9,27.1,30.13,SSW,201,5.0,8.0,41,0.00,,,0.00,VWS V14.01,2013-12-07 17:45:00,
2013-12-07 10:49:00,50.3,27.5,30.13,SSW,212,2.0,7.0,41,0.00,,,0.00,VWS V14.01,2013-12-07 17:49:00,
2013-12-07 10:50:00,50.3,26.9,30.13,SW,227,4.0,7.0,40,0.00,,,0.00,VWS V14.01,2013-12-07 17:50:00,
2013-12-07 10:54:00,50.4,26.4,30.12,SW,223,7.0,9.0,39,0.00,,,0.00,VWS V14.01,2013-12-07 17:54:00,
2013-12-07 10:55:00,50.4,26.4,30.12,SSW,212,8.0,9.0,39,0.00,,,0.00,VWS V14.01,2013-12-07 17:55:00,
2013-12-07 10:59:00,50.8,26.1,30.12,SSW,208,6.0,8.0,38,0.00,,,0.00,VWS V14.01,2013-12-07 17:59:00,
2013-12-07 11:00:00,50.8,26.1,30.12,SSW,207,5.0,8.0,38,0.00,,,0.00,VWS V14.01,2013-12-07 18:00:00,
2013-12-07 11:04:00,50.8,25.5,30.12,SSW,199,5.0,9.0,37,0.00,,,0.00,VWS V14.01,2013-12-07 18:04:00,
2013-12-07 11:05:00,50.8,25.5,30.12,SSW,201,3.0,9.0,37,0.00,,,0.00,VWS V14.01,2013-12-07 18:05:00,
2013-12-07 11:09:00,51.6,25.5,30.11,SSW,207,4.0,10.0,36,0.00,,,0.00,VWS V14.01,2013-12-07 18:09:00,
2013-12-07 11:10:00,51.7,26.3,30.11,SW,219,5.0,10.0,37,0.00,,,0.00,VWS V14.01,2013-12-07 18:10:00,
2013-12-07 11:14:00,51.7,25.6,30.11,SSW,212,8.0,11.0,36,0.00,,,0.00,VWS V14.01,2013-12-07 18:14:00,
2013-12-07 11:15:00,51.6,24.2,30.11,South,186,7.0,11.0,34,0.00,,,0.00,VWS V14.01,2013-12-07 18:15:00,
2013-12-07 11:19:00,51.8,25.0,30.11,SSW,207,1.0,9.0,35,0.00,,,0.00,VWS V14.01,2013-12-07 18:19:00,
2013-12-07 11:20:00,51.9,25.1,30.11,SSW,211,8.0,9.0,35,0.00,,,0.00,VWS V14.01,2013-12-07 18:20:00,
2013-12-07 11:24:00,52.1,23.9,30.11,SW,221,11.0,11.0,33,0.00,,,0.00,VWS V14.01,2013-12-07 18:24:00,
2013-12-07 11:25:00,51.9,23.0,30.11,SSW,211,8.0,11.0,32,0.00,,,0.00,VWS V14.01,2013-12-07 18:25:00,
2013-12-07 11:29:00,51.7,22.1,30.10,SW,220,12.0,12.0,31,0.00,,,0.00,VWS V14.01,2013-12-07 18:29:00,
2013-12-07 11:30:00,51.6,22.0,30.10,SSW,196,9.0,12.0,31,0.00,,,0.00,VWS V14.01,2013-12-07 18:30:00,
2013-12-07 11:34:00,51.8,22.9,30.10,SSW,213,5.0,12.0,32,0.00,,,0.00,VWS V14.01,2013-12-07 18:34:00,
2013-12-07 11:35:00,51.9,23.0,30.10,South,191,7.0,12.0,32,0.00,,,0.00,VWS V14.01,2013-12-07 18:35:00,
2013-12-07 11:39:00,52.0,23.8,30.10,SSW,212,8.0,14.0,33,0.00,,,0.00,VWS V14.01,2013-12-07 18:39:00,
2013-12-07 11:40:00,52.1,23.9,30.10,SW,217,7.0,14.0,33,0.00,,,0.00,VWS V14.01,2013-12-07 18:40:00,
2013-12-07 11:44:00,52.4,22.7,30.10,SW,232,5.0,13.0,31,0.00,,,0.00,VWS V14.01,2013-12-07 18:44:00,
2013-12-07 11:45:00,52.4,22.7,30.10,SW,224,2.0,13.0,31,0.00,,,0.00,VWS V14.01,2013-12-07 18:45:00,
2013-12-07 11:49:00,52.0,20.8,30.10,SW,221,7.0,15.0,29,0.00,,,0.00,VWS V14.01,2013-12-07 18:49:00,
2013-12-07 11:50:00,52.0,21.5,30.09,SSW,196,4.0,15.0,30,0.00,,,0.00,VWS V14.01,2013-12-07 18:50:00,
2013-12-07 11:54:00,52.3,21.8,30.09,SW,227,9.0,11.0,30,0.00,,,0.00,VWS V14.01,2013-12-07 18:54:00,
2013-12-07 11:55:00,52.3,22.6,30.09,SW,229,5.0,11.0,31,0.00,,,0.00,VWS V14.01,2013-12-07 18:55:00,
2013-12-07 11:59:00,52.2,22.5,30.08,South,190,6.0,13.0,31,0.00,,,0.00,VWS V14.01,2013-12-07 18:59:00,
2013-12-07 12:00:00,52.2,21.7,30.08,SSW,192,8.0,13.0,30,0.00,,,0.00,VWS V14.01,2013-12-07 19:00:00,
2013-12-07 12:04:00,52.8,21.4,30.08,SW,222,8.0,11.0,29,0.00,,,0.00,VWS V14.01,2013-12-07 19:04:00,
2013-12-07 12:05:00,52.7,21.4,30.08,SW,230,5.0,11.0,29,0.00,,,0.00,VWS V14.01,2013-12-07 19:05:00,
2013-12-07 12:09:00,53.1,21.7,30.07,SSW,211,8.0,10.0,29,0.00,,,0.00,VWS V14.01,2013-12-07 19:09:00,
2013-12-07 12:10:00,53.1,21.7,30.07,SSW,213,6.0,10.0,29,0.00,,,0.00,VWS V14.01,2013-12-07 19:10:00,
2013-12-07 12:14:00,53.0,22.4,30.07,SSW,213,10.0,10.0,30,0.00,,,0.00,VWS V14.01,2013-12-07 19:14:00,
2013-12-07 12:15:00,53.0,22.4,30.07,SW,236,2.0,12.0,30,0.00,,,0.00,VWS V14.01,2013-12-07 19:15:00,
2013-12-07 12:19:00,52.5,21.2,30.07,SW,216,5.0,10.0,29,0.00,,,0.00,VWS V14.01,2013-12-07 19:19:00,
2013-12-07 12:20:00,52.6,21.3,30.07,SW,233,6.0,10.0,29,0.00,,,0.00,VWS V14.01,2013-12-07 19:20:00,
2013-12-07 12:24:00,53.0,22.4,30.06,SW,221,7.0,11.0,30,0.00,,,0.00,VWS V14.01,2013-12-07 19:24:00,
2013-12-07 12:25:00,53.0,21.6,30.06,SSW,194,5.0,11.0,29,0.00,,,0.00,VWS V14.01,2013-12-07 19:25:00,
2013-12-07 12:29:00,53.4,22.8,30.06,SW,223,4.0,10.0,30,0.00,,,0.00,VWS V14.01,2013-12-07 19:29:00,
2013-12-07 12:30:00,53.5,21.2,30.06,SW,221,6.0,10.0,28,0.00,,,0.00,VWS V14.01,2013-12-07 19:30:00,
2013-12-07 12:34:00,53.5,19.5,30.06,SW,234,4.0,9.0,26,0.00,,,0.00,VWS V14.01,2013-12-07 19:34:00,
2013-12-07 12:35:00,53.5,19.5,30.06,SW,223,9.0,9.0,26,0.00,,,0.00,VWS V14.01,2013-12-07 19:35:00,
2013-12-07 12:39:00,54.0,19.0,30.05,SW,221,6.0,10.0,25,0.00,,,0.00,VWS V14.01,2013-12-07 19:39:00,
2013-12-07 12:40:00,54.0,19.0,30.05,SW,220,5.0,10.0,25,0.00,,,0.00,VWS V14.01,2013-12-07 19:40:00,
2013-12-07 12:44:00,54.3,18.3,30.05,SW,226,4.0,10.0,24,0.00,,,0.00,VWS V14.01,2013-12-07 19:44:00,
2013-12-07 12:45:00,54.2,18.2,30.05,SW,224,3.0,10.0,24,0.00,,,0.00,VWS V14.01,2013-12-07 19:45:00,
2013-12-07 12:49:00,54.1,16.1,30.05,SSW,195,6.0,11.0,22,0.00,,,0.00,VWS V14.01,2013-12-07 19:49:00,
2013-12-07 12:50:00,54.1,16.1,30.05,SSW,199,7.0,11.0,22,0.00,,,0.00,VWS V14.01,2013-12-07 19:50:00,
2013-12-07 12:54:00,54.2,15.1,30.04,SW,228,7.0,10.0,21,0.00,,,0.00,VWS V14.01,2013-12-07 19:54:00,
2013-12-07 12:55:00,54.2,15.1,30.04,SW,223,10.0,12.0,21,0.00,,,0.00,VWS V14.01,2013-12-07 19:55:00,
2013-12-07 12:59:00,54.2,17.2,30.04,South,188,6.0,12.0,23,0.00,,,0.00,VWS V14.01,2013-12-07 19:59:00,
2013-12-07 13:00:00,54.4,19.3,30.04,SW,225,6.0,12.0,25,0.00,,,0.00,VWS V14.01,2013-12-07 20:00:00,
2013-12-07 13:04:00,53.9,17.0,30.04,SSW,211,7.0,11.0,23,0.00,,,0.00,VWS V14.01,2013-12-07 20:04:00,
2013-12-07 13:05:00,53.9,18.0,30.04,SW,214,3.0,11.0,24,0.00,,,0.00,VWS V14.01,2013-12-07 20:05:00,
2013-12-07 13:09:00,54.1,17.1,30.04,SSW,197,5.0,10.0,23,0.00,,,0.00,VWS V14.01,2013-12-07 20:09:00,
2013-12-07 13:10:00,54.1,17.1,30.04,SW,225,7.0,10.0,23,0.00,,,0.00,VWS V14.01,2013-12-07 20:10:00,
2013-12-07 13:14:00,54.7,18.6,30.03,SW,215,3.0,11.0,24,0.00,,,0.00,VWS V14.01,2013-12-07 20:14:00,
2013-12-07 13:15:00,54.7,18.6,30.03,SW,233,2.0,11.0,24,0.00,,,0.00,VWS V14.01,2013-12-07 20:15:00,
2013-12-07 13:19:00,54.7,19.6,30.03,SW,217,5.0,10.0,25,0.00,,,0.00,VWS V14.01,2013-12-07 20:19:00,
2013-12-07 13:20:00,54.8,19.7,30.03,SW,228,2.0,10.0,25,0.00,,,0.00,VWS V14.01,2013-12-07 20:20:00,
2013-12-07 13:24:00,54.7,16.6,30.03,SW,227,5.0,11.0,22,0.00,,,0.00,VWS V14.01,2013-12-07 20:24:00,
2013-12-07 13:25:00,54.6,16.5,30.03,SSW,204,4.0,11.0,22,0.00,,,0.00,VWS V14.01,2013-12-07 20:25:00,
2013-12-07 13:29:00,54.3,16.3,30.03,South,191,6.0,13.0,22,0.00,,,0.00,VWS V14.01,2013-12-07 20:29:00,
2013-12-07 13:30:00,54.2,16.2,30.03,SW,232,4.0,13.0,22,0.00,,,0.00,VWS V14.01,2013-12-07 20:30:00,
2013-12-07 13:34:00,53.9,18.9,30.03,WSW,253,4.0,10.0,25,0.00,,,0.00,VWS V14.01,2013-12-07 20:34:00,
2013-12-07 13:35:00,53.9,19.8,30.03,WSW,248,3.0,10.0,26,0.00,,,0.00,VWS V14.01,2013-12-07 20:35:00,
2013-12-07 13:39:00,54.1,20.0,30.03,SW,217,8.0,8.0,26,0.00,,,0.00,VWS V14.01,2013-12-07 20:39:00,
2013-12-07 13:40:00,54.1,20.0,30.03,SSW,206,5.0,8.0,26,0.00,,,0.00,VWS V14.01,2013-12-07 20:40:00,
2013-12-07 13:44:00,54.3,21.9,30.04,SSW,207,10.0,11.0,28,0.00,,,0.00,VWS V14.01,2013-12-07 20:44:00,
2013-12-07 13:45:00,54.3,21.9,30.04,SW,217,4.0,11.0,28,0.00,,,0.00,VWS V14.01,2013-12-07 20:45:00,
2013-12-07 13:49:00,53.9,19.8,30.03,WSW,250,3.0,7.0,26,0.00,,,0.00,VWS V14.01,2013-12-07 20:49:00,
2013-12-07 13:50:00,53.8,19.7,30.03,SW,216,6.0,7.0,26,0.00,,,0.00,VWS V14.01,2013-12-07 20:50:00,
2013-12-07 13:54:00,54.2,21.8,30.03,SW,231,5.0,11.0,28,0.00,,,0.00,VWS V14.01,2013-12-07 20:54:00,
2013-12-07 13:55:00,54.2,21.8,30.03,WNW,282,5.0,11.0,28,0.00,,,0.00,VWS V14.01,2013-12-07 20:55:00,
2013-12-07 13:59:00,54.3,21.9,30.03,SW,217,2.0,11.0,28,0.00,,,0.00,VWS V14.01,2013-12-07 20:59:00,
2013-12-07 14:00:00,54.2,21.8,30.03,SW,218,1.0,11.0,28,0.00,,,0.00,VWS V14.01,2013-12-07 21:00:00,
2013-12-07 14:04:00,53.5,22.9,30.03,WNW,284,1.0,5.0,30,0.00,,,0.00,VWS V14.01,2013-12-07 21:04:00,
2013-12-07 14:05:00,53.5,22.9,30.03,WNW,284,1.0,5.0,30,0.00,,,0.00,VWS V14.01,2013-12-07 21:05:00,
2013-12-07 14:09:00,53.7,21.4,30.03,WSW,252,5.0,10.0,28,0.00,,,0.00,VWS V14.01,2013-12-07 21:09:00,
2013-12-07 14:10:00,53.7,22.2,30.03,West,259,6.0,10.0,29,0.00,,,0.00,VWS V14.01,2013-12-07 21:10:00,
2013-12-07 14:14:00,53.6,21.3,30.03,WSW,247,1.0,7.0,28,0.00,,,0.00,VWS V14.01,2013-12-07 21:14:00,
2013-12-07 14:15:00,53.6,22.1,30.03,WSW,252,3.0,7.0,29,0.00,,,0.00,VWS V14.01,2013-12-07 21:15:00,
2013-12-07 14:19:00,53.8,22.3,30.03,SW,232,3.0,8.0,29,0.00,,,0.00,VWS V14.01,2013-12-07 21:19:00,
2013-12-07 14:20:00,53.8,22.3,30.03,WSW,257,3.0,8.0,29,0.00,,,0.00,VWS V14.01,2013-12-07 21:20:00,
2013-12-07 14:24:00,53.3,21.0,30.03,WSW,238,2.0,7.0,28,0.00,,,0.00,VWS V14.01,2013-12-07 21:24:00,
2013-12-07 14:25:00,53.3,21.0,30.03,SW,225,5.0,7.0,28,0.00,,,0.00,VWS V14.01,2013-12-07 21:25:00,
2013-12-07 14:29:00,53.6,22.1,30.04,WSW,252,2.0,11.0,29,0.00,,,0.00,VWS V14.01,2013-12-07 21:29:00,
2013-12-07 14:30:00,53.6,22.1,30.04,WSW,254,2.0,11.0,29,0.00,,,0.00,VWS V14.01,2013-12-07 21:30:00,
2013-12-07 14:34:00,53.3,22.7,30.03,SW,233,8.0,8.0,30,0.00,,,0.00,VWS V14.01,2013-12-07 21:34:00,
2013-12-07 14:35:00,53.4,22.8,30.03,SW,218,8.0,8.0,30,0.00,,,0.00,VWS V14.01,2013-12-07 21:35:00,
2013-12-07 14:39:00,53.5,22.0,30.03,WSW,252,1.0,11.0,29,0.00,,,0.00,VWS V14.01,2013-12-07 21:39:00,
2013-12-07 14:40:00,53.5,22.0,30.03,WSW,252,2.0,11.0,29,0.00,,,0.00,VWS V14.01,2013-12-07 21:40:00,
2013-12-07 14:44:00,53.6,22.1,30.03,SW,215,1.0,9.0,29,0.00,,,0.00,VWS V14.01,2013-12-07 21:44:00,
2013-12-07 14:45:00,53.6,22.1,30.03,SW,215,2.0,9.0,29,0.00,,,0.00,VWS V14.01,2013-12-07 21:45:00,
2013-12-07 14:49:00,53.7,22.2,30.03,SW,217,9.0,9.0,29,0.00,,,0.00,VWS V14.01,2013-12-07 21:49:00,
2013-12-07 14:50:00,53.7,22.2,30.03,SW,225,7.0,9.0,29,0.00,,,0.00,VWS V14.01,2013-12-07 21:50:00,
2013-12-07 14:54:00,53.5,22.0,30.03,SW,234,1.0,7.0,29,0.00,,,0.00,VWS V14.01,2013-12-07 21:54:00,
2013-12-07 14:55:00,53.5,22.0,30.03,SW,234,2.0,7.0,29,0.00,,,0.00,VWS V14.01,2013-12-07 21:55:00,
2013-12-07 14:59:00,53.6,22.9,30.03,SSW,213,7.0,11.0,30,0.00,,,0.00,VWS V14.01,2013-12-07 21:59:00,
2013-12-07 15:00:00,53.6,22.9,30.03,SW,217,10.0,11.0,30,0.00,,,0.00,VWS V14.01,2013-12-07 22:00:00,
2013-12-07 15:04:00,53.7,23.0,30.03,SSW,213,5.0,12.0,30,0.00,,,0.00,VWS V14.01,2013-12-07 22:04:00,
2013-12-07 15:05:00,53.7,23.0,30.03,SW,229,6.0,12.0,30,0.00,,,0.00,VWS V14.01,2013-12-07 22:05:00,
2013-12-07 15:09:00,53.5,22.9,30.03,SW,218,1.0,11.0,30,0.00,,,0.00,VWS V14.01,2013-12-07 22:09:00,
2013-12-07 15:10:00,53.5,22.9,30.03,SW,218,2.0,11.0,30,0.00,,,0.00,VWS V14.01,2013-12-07 22:10:00,
2013-12-07 15:14:00,53.6,22.1,30.02,SW,230,8.0,11.0,29,0.00,,,0.00,VWS V14.01,2013-12-07 22:14:00,
2013-12-07 15:15:00,53.6,22.1,30.02,SSW,203,8.0,11.0,29,0.00,,,0.00,VWS V14.01,2013-12-07 22:15:00,
2013-12-07 15:19:00,53.3,21.9,30.03,SW,226,5.0,14.0,29,0.00,,,0.00,VWS V14.01,2013-12-07 22:19:00,
2013-12-07 15:20:00,53.3,21.9,30.03,SW,217,8.0,14.0,29,0.00,,,0.00,VWS V14.01,2013-12-07 22:20:00,
2013-12-07 15:24:00,52.9,21.5,30.03,SW,231,6.0,13.0,29,0.00,,,0.00,VWS V14.01,2013-12-07 22:24:00,
2013-12-07 15:25:00,52.9,21.5,30.03,WSW,240,4.0,13.0,29,0.00,,,0.00,VWS V14.01,2013-12-07 22:25:00,
2013-12-07 15:29:00,52.7,22.2,30.03,SW,225,5.0,10.0,30,0.00,,,0.00,VWS V14.01,2013-12-07 22:29:00,
2013-12-07 15:30:00,52.6,22.1,30.03,SW,221,6.0,10.0,30,0.00,,,0.00,VWS V14.01,2013-12-07 22:30:00,
2013-12-07 15:34:00,52.7,21.4,30.03,SW,217,9.0,12.0,29,0.00,,,0.00,VWS V14.01,2013-12-07 22:34:00,
2013-12-07 15:35:00,52.6,21.3,30.03,SW,215,7.0,12.0,29,0.00,,,0.00,VWS V14.01,2013-12-07 22:35:00,
2013-12-07 15:39:00,52.6,22.9,30.03,SW,225,2.0,10.0,31,0.00,,,0.00,VWS V14.01,2013-12-07 22:39:00,
2013-12-07 15:40:00,52.6,22.9,30.03,SW,225,1.0,10.0,31,0.00,,,0.00,VWS V14.01,2013-12-07 22:40:00,
2013-12-07 15:44:00,52.6,22.1,30.03,SW,223,1.0,8.0,30,0.00,,,0.00,VWS V14.01,2013-12-07 22:44:00,
2013-12-07 15:45:00,52.6,22.1,30.03,SW,223,2.0,8.0,30,0.00,,,0.00,VWS V14.01,2013-12-07 22:45:00,
2013-12-07 15:49:00,52.4,22.7,30.02,SW,227,7.0,13.0,31,0.00,,,0.00,VWS V14.01,2013-12-07 22:49:00,
2013-12-07 15:50:00,52.4,22.7,30.02,SW,227,4.0,13.0,31,0.00,,,0.00,VWS V14.01,2013-12-07 22:50:00,
2013-12-07 15:54:00,52.1,22.4,30.02,SW,219,10.0,10.0,31,0.00,,,0.00,VWS V14.01,2013-12-07 22:54:00,
2013-12-07 15:55:00,52.1,22.4,30.02,SW,220,9.0,10.0,31,0.00,,,0.00,VWS V14.01,2013-12-07 22:55:00,
2013-12-07 15:59:00,51.9,21.5,30.03,SW,220,5.0,9.0,30,0.00,,,0.00,VWS V14.01,2013-12-07 22:59:00,
2013-12-07 16:00:00,51.9,21.5,30.03,SW,223,4.0,9.0,30,0.00,,,0.00,VWS V14.01,2013-12-07 23:00:00,
2013-12-07 16:04:00,51.8,22.1,30.03,SW,226,4.0,10.0,31,0.00,,,0.00,VWS V14.01,2013-12-07 23:04:00,
2013-12-07 16:05:00,51.8,22.1,30.03,SW,225,4.0,10.0,31,0.00,,,0.00,VWS V14.01,2013-12-07 23:05:00,
2013-12-07 16:10:00,51.7,23.5,30.03,SW,223,3.0,10.0,33,0.00,,,0.00,VWS V14.01,2013-12-07 23:10:00,
2013-12-07 16:15:00,51.3,23.2,30.03,SW,223,1.0,8.0,33,0.00,,,0.00,VWS V14.01,2013-12-07 23:15:00,
2013-12-07 16:20:00,51.0,24.3,30.03,SW,231,5.0,5.0,35,0.00,,,0.00,VWS V14.01,2013-12-07 23:20:00,
2013-12-07 16:25:00,50.6,24.0,30.03,SW,227,2.0,6.0,35,0.00,,,0.00,VWS V14.01,2013-12-07 23:25:00,
2013-12-07 16:30:00,50.2,24.3,30.03,SW,234,2.0,4.0,36,0.00,,,0.00,VWS V14.01,2013-12-07 23:30:00,
2013-12-07 16:35:00,49.9,24.0,30.03,WSW,249,2.0,4.0,36,0.00,,,0.00,VWS V14.01,2013-12-07 23:35:00,
2013-12-07 16:40:00,49.5,24.3,30.03,SW,219,1.0,5.0,37,0.00,,,0.00,VWS V14.01,2013-12-07 23:40:00,
2013-12-07 16:45:00,49.1,24.6,30.03,SW,215,6.0,7.0,38,0.00,,,0.00,VWS V14.01,2013-12-07 23:45:00,
2013-12-07 16:50:00,48.8,25.0,30.03,SW,227,2.0,8.0,39,0.00,,,0.00,VWS V14.01,2013-12-07 23:50:00,
2013-12-07 16:55:00,48.3,25.1,30.03,SW,227,3.0,5.0,40,0.00,,,0.00,VWS V14.01,2013-12-07 23:55:00,
2013-12-07 17:00:00,48.0,24.9,30.03,SW,227,1.0,4.0,40,0.00,,,0.00,VWS V14.01,2013-12-08 00:00:00,
2013-12-07 17:05:00,47.5,25.6,30.03,SW,227,1.0,4.0,42,0.00,,,0.00,VWS V14.01,2013-12-08 00:05:00,
2013-12-07 17:10:00,46.9,25.6,30.04,SW,227,1.0,2.0,43,0.00,,,0.00,VWS V14.01,2013-12-08 00:10:00,
2013-12-07 17:15:00,46.5,25.8,30.04,SW,227,3.0,4.0,44,0.00,,,0.00,VWS V14.01,2013-12-08 00:15:00,
2013-12-07 17:20:00,46.4,25.7,30.04,SW,214,2.0,5.0,44,0.00,,,0.00,VWS V14.01,2013-12-08 00:20:00,
2013-12-07 17:25:00,46.1,26.0,30.04,SW,225,5.0,7.0,45,0.00,,,0.00,VWS V14.01,2013-12-08 00:25:00,
2013-12-07 17:30:00,46.1,26.0,30.04,SW,226,3.0,6.0,45,0.00,,,0.00,VWS V14.01,2013-12-08 00:30:00,
2013-12-07 17:35:00,45.9,26.3,30.04,SW,226,1.0,7.0,46,0.00,,,0.00,VWS V14.01,2013-12-08 00:35:00,
2013-12-07 17:40:00,45.7,26.6,30.04,SW,226,2.0,6.0,47,0.00,,,0.00,VWS V14.01,2013-12-08 00:40:00,
2013-12-07 17:45:00,45.7,26.1,30.04,SW,226,2.0,3.0,46,0.00,,,0.00,VWS V14.01,2013-12-08 00:45:00,
2013-12-07 17:50:00,45.4,25.9,30.04,SW,227,4.0,4.0,46,0.00,,,0.00,VWS V14.01,2013-12-08 00:50:00,
2013-12-07 17:55:00,45.4,26.4,30.04,SW,225,3.0,5.0,47,0.00,,,0.00,VWS V14.01,2013-12-08 00:55:00,
2013-12-07 18:00:00,45.3,26.8,30.05,SW,228,0.0,4.0,48,0.00,,,0.00,VWS V14.01,2013-12-08 01:00:00,
2013-12-07 18:05:00,45.3,26.8,30.05,WSW,254,0.0,4.0,48,0.00,,,0.00,VWS V14.01,2013-12-08 01:05:00,
2013-12-07 18:10:00,45.3,27.3,30.05,WSW,251,0.0,4.0,49,0.00,,,0.00,VWS V14.01,2013-12-08 01:10:00,
2013-12-07 18:15:00,44.6,27.1,30.06,WSW,251,1.0,3.0,50,0.00,,,0.00,VWS V14.01,2013-12-08 01:15:00,
2013-12-07 18:20:00,44.4,27.4,30.06,WSW,251,0.0,3.0,51,0.00,,,0.00,VWS V14.01,2013-12-08 01:20:00,
2013-12-07 18:25:00,44.6,27.6,30.06,SW,236,3.0,5.0,51,0.00,,,0.00,VWS V14.01,2013-12-08 01:25:00,
2013-12-07 18:30:00,44.9,28.4,30.06,SW,219,1.0,6.0,52,0.00,,,0.00,VWS V14.01,2013-12-08 01:30:00,
2013-12-07 18:35:00,44.9,28.4,30.07,SSW,204,0.0,4.0,52,0.00,,,0.00,VWS V14.01,2013-12-08 01:35:00,
2013-12-07 18:40:00,44.4,27.9,30.07,SSW,204,1.0,3.0,52,0.00,,,0.00,VWS V14.01,2013-12-08 01:40:00,
2013-12-07 18:45:00,44.0,28.4,30.07,SSW,204,2.0,2.0,54,0.00,,,0.00,VWS V14.01,2013-12-08 01:45:00,
2013-12-07 18:50:00,44.1,29.4,30.07,West,277,3.0,4.0,56,0.00,,,0.00,VWS V14.01,2013-12-08 01:50:00,
2013-12-07 18:55:00,44.3,30.0,30.08,SW,232,3.0,5.0,57,0.00,,,0.00,VWS V14.01,2013-12-08 01:55:00,
2013-12-07 19:00:00,44.4,30.6,30.08,SW,220,5.0,8.0,58,0.00,,,0.00,VWS V14.01,2013-12-08 02:00:00,
2013-12-07 19:05:00,44.5,31.1,30.08,SW,214,1.0,8.0,59,0.00,,,0.00,VWS V14.01,2013-12-08 02:05:00,
2013-12-07 19:10:00,44.7,31.3,30.08,SSW,213,4.0,8.0,59,0.00,,,0.00,VWS V14.01,2013-12-08 02:10:00,
2013-12-07 19:15:00,44.6,31.2,30.08,SW,215,8.0,8.0,59,0.00,,,0.00,VWS V14.01,2013-12-08 02:15:00,
2013-12-07 19:20:00,44.3,31.3,30.08,SSW,210,1.0,8.0,60,0.00,,,0.00,VWS V14.01,2013-12-08 02:20:00,
2013-12-07 19:25:00,44.2,31.2,30.08,SW,221,3.0,5.0,60,0.00,,,0.00,VWS V14.01,2013-12-08 02:25:00,
2013-12-07 19:30:00,43.9,31.3,30.08,SSW,203,1.0,5.0,61,0.00,,,0.00,VWS V14.01,2013-12-08 02:30:00,
2013-12-07 19:35:00,43.5,30.5,30.08,SSW,200,3.0,4.0,60,0.00,,,0.00,VWS V14.01,2013-12-08 02:35:00,
2013-12-07 19:40:00,43.2,30.3,30.08,SSW,196,3.0,3.0,60,0.00,,,0.00,VWS V14.01,2013-12-08 02:40:00,
2013-12-07 19:45:00,43.1,30.6,30.09,SSW,196,2.0,4.0,61,0.00,,,0.00,VWS V14.01,2013-12-08 02:45:00,
2013-12-07 19:50:00,42.9,30.4,30.09,SSW,194,2.0,4.0,61,0.00,,,0.00,VWS V14.01,2013-12-08 02:50:00,
2013-12-07 19:55:00,43.0,30.5,30.09,South,178,0.0,6.0,61,0.00,,,0.00,VWS V14.01,2013-12-08 02:55:00,
2013-12-07 20:00:00,42.9,30.8,30.09,South,175,4.0,5.0,62,0.00,,,0.00,VWS V14.01,2013-12-08 03:00:00,
2013-12-07 20:05:00,43.0,31.3,30.09,South,186,3.0,7.0,63,0.00,,,0.00,VWS V14.01,2013-12-08 03:05:00,
2013-12-07 20:10:00,43.1,31.4,30.09,South,179,5.0,6.0,63,0.00,,,0.00,VWS V14.01,2013-12-08 03:10:00,
2013-12-07 20:13:00,43.3,30.4,30.09,SSW,196,2.0,5.0,60,0.00,,,0.00,VWS V14.01,2013-12-08 03:13:00,
2013-12-07 20:25:00,42.8,31.1,30.09,South,188,3.0,6.0,63,0.00,,,0.00,VWS V14.01,2013-12-08 03:25:00,
2013-12-07 20:28:00,42.9,30.4,30.09,South,178,4.0,4.0,61,0.00,,,0.00,VWS V14.01,2013-12-08 03:28:00,
2013-12-07 20:35:00,42.7,31.0,30.09,South,180,4.0,4.0,63,0.00,,,0.00,VWS V14.01,2013-12-08 03:35:00,
2013-12-07 20:40:00,42.6,30.9,30.09,SSE,168,1.0,7.0,63,0.00,,,0.00,VWS V14.01,2013-12-08 03:40:00,
2013-12-07 20:43:00,43.1,31.4,30.09,South,181,6.0,6.0,63,0.00,,,0.00,VWS V14.01,2013-12-08 03:43:00,
2013-12-07 20:45:00,42.5,31.2,30.09,SSE,168,0.0,5.0,64,0.00,,,0.00,VWS V14.01,2013-12-08 03:45:00,
2013-12-07 20:48:00,43.1,31.0,30.09,South,180,4.0,7.0,62,0.00,,,0.00,VWS V14.01,2013-12-08 03:48:00,
2013-12-07 20:50:00,42.1,30.8,30.09,SSE,168,1.0,1.0,64,0.00,,,0.00,VWS V14.01,2013-12-08 03:50:00,
2013-12-07 20:53:00,43.0,30.9,30.09,South,186,3.0,9.0,62,0.00,,,0.00,VWS V14.01,2013-12-08 03:53:00,
2013-12-07 20:55:00,41.7,31.2,30.09,SSE,165,2.0,6.0,66,0.00,,,0.00,VWS V14.01,2013-12-08 03:55:00,
2013-12-07 20:58:00,42.8,31.1,30.09,South,188,3.0,3.0,63,0.00,,,0.00,VWS V14.01,2013-12-08 03:58:00,
2013-12-07 21:00:00,41.6,31.5,30.09,SSE,163,4.0,6.0,67,0.00,,,0.00,VWS V14.01,2013-12-08 04:00:00,
2013-12-07 21:03:00,42.8,31.1,30.09,South,189,1.0,1.0,63,0.00,,,0.00,VWS V14.01,2013-12-08 04:03:00,
2013-12-07 21:05:00,41.7,31.9,30.09,South,181,0.0,5.0,68,0.00,,,0.00,VWS V14.01,2013-12-08 04:05:00,
2013-12-07 21:10:00,41.6,32.2,30.08,SW,217,6.0,6.0,69,0.00,,,0.00,VWS V14.01,2013-12-08 04:10:00,
2013-12-07 21:15:00,41.9,32.5,30.08,SSW,200,2.0,7.0,69,0.00,,,0.00,VWS V14.01,2013-12-08 04:15:00,
2013-12-07 21:18:00,42.5,31.2,30.09,SSE,168,0.0,1.0,64,0.00,,,0.00,VWS V14.01,2013-12-08 04:18:00,
2013-12-07 21:20:00,41.9,32.5,30.08,SSW,211,3.0,5.0,69,0.00,,,0.00,VWS V14.01,2013-12-08 04:20:00,
2013-12-07 21:25:00,41.8,32.4,30.08,SSW,211,0.0,4.0,69,0.00,,,0.00,VWS V14.01,2013-12-08 04:25:00,
2013-12-07 21:30:00,41.5,32.5,30.08,SSW,211,0.0,2.0,70,0.00,,,0.00,VWS V14.01,2013-12-08 04:30:00,
2013-12-07 21:35:00,41.3,31.9,30.08,SSW,211,1.0,5.0,69,0.00,,,0.00,VWS V14.01,2013-12-08 04:35:00,
2013-12-07 21:38:00,41.6,31.8,30.09,South,181,3.0,3.0,68,0.00,,,0.00,VWS V14.01,2013-12-08 04:38:00,
2013-12-07 21:40:00,41.3,32.3,30.09,SSW,208,1.0,5.0,70,0.00,,,0.00,VWS V14.01,2013-12-08 04:40:00,
2013-12-07 21:45:00,41.2,32.2,30.09,SW,218,1.0,4.0,70,0.00,,,0.00,VWS V14.01,2013-12-08 04:45:00,
2013-12-07 21:50:00,41.2,32.2,30.09,SW,218,0.0,4.0,70,0.00,,,0.00,VWS V14.01,2013-12-08 04:50:00,
2013-12-07 21:55:00,41.3,32.3,30.10,SW,221,2.0,6.0,70,0.00,,,0.00,VWS V14.01,2013-12-08 04:55:00,
2013-12-07 22:00:00,41.4,32.4,30.10,SW,229,1.0,6.0,70,0.00,,,0.00,VWS V14.01,2013-12-08 05:00:00,
2013-12-07 22:05:00,41.3,32.3,30.10,WSW,248,2.0,5.0,70,0.00,,,0.00,VWS V14.01,2013-12-08 05:05:00,
2013-12-07 22:10:00,41.3,31.9,30.10,WSW,241,1.0,4.0,69,0.00,,,0.00,VWS V14.01,2013-12-08 05:10:00,
2013-12-07 22:15:00,41.3,31.9,30.10,West,264,1.0,3.0,69,0.00,,,0.00,VWS V14.01,2013-12-08 05:15:00,
2013-12-07 22:20:00,41.4,32.0,30.10,WSW,250,1.0,4.0,69,0.00,,,0.00,VWS V14.01,2013-12-08 05:20:00,
2013-12-07 22:25:00,41.5,31.7,30.10,SW,226,3.0,7.0,68,0.00,,,0.00,VWS V14.01,2013-12-08 05:25:00,
2013-12-07 22:30:00,41.6,31.8,30.10,SW,226,3.0,6.0,68,0.00,,,0.00,VWS V14.01,2013-12-08 05:30:00,
2013-12-07 22:35:00,41.4,31.6,30.10,SW,226,3.0,5.0,68,0.00,,,0.00,VWS V14.01,2013-12-08 05:35:00,
2013-12-07 22:40:00,41.4,31.6,30.10,SW,221,2.0,7.0,68,0.00,,,0.00,VWS V14.01,2013-12-08 05:40:00,
2013-12-07 22:45:00,41.3,31.2,30.11,SW,234,0.0,4.0,67,0.00,,,0.00,VWS V14.01,2013-12-08 05:45:00,
2013-12-07 22:50:00,41.3,31.2,30.10,SW,234,4.0,6.0,67,0.00,,,0.00,VWS V14.01,2013-12-08 05:50:00,
2013-12-07 22:55:00,41.4,30.9,30.10,SW,234,4.0,5.0,66,0.00,,,0.00,VWS V14.01,2013-12-08 05:55:00,
2013-12-07 23:00:00,41.3,30.8,30.10,SW,234,1.0,4.0,66,0.00,,,0.00,VWS V14.01,2013-12-08 06:00:00,
2013-12-07 23:05:00,41.2,30.7,30.09,SW,234,0.0,5.0,66,0.00,,,0.00,VWS V14.01,2013-12-08 06:05:00,
2013-12-07 23:10:00,41.0,30.5,30.09,SW,234,0.0,4.0,66,0.00,,,0.00,VWS V14.01,2013-12-08 06:10:00,
2013-12-07 23:15:00,40.7,30.2,30.09,SW,234,0.0,3.0,66,0.00,,,0.00,VWS V14.01,2013-12-08 06:15:00,
2013-12-07 23:20:00,40.4,30.0,30.09,SW,234,0.0,2.0,66,0.00,,,0.00,VWS V14.01,2013-12-08 06:20:00,
2013-12-07 23:25:00,40.3,30.2,30.09,SW,234,0.0,1.0,67,0.00,,,0.00,VWS V14.01,2013-12-08 06:25:00,
2013-12-07 23:30:00,40.1,30.4,30.09,SW,234,0.0,0.0,68,0.00,,,0.00,VWS V14.01,2013-12-08 06:30:00,
2013-12-07 23:35:00,40.0,29.6,30.09,SW,234,0.0,2.0,66,0.00,,,0.00,VWS V14.01,2013-12-08 06:35:00,
2013-12-07 23:40:00,40.4,29.2,30.09,SW,227,2.0,6.0,64,0.00,,,0.00,VWS V14.01,2013-12-08 06:40:00,
2013-12-07 23:45:00,40.7,29.1,30.09,SW,227,0.0,2.0,63,0.00,,,0.00,VWS V14.01,2013-12-08 06:45:00,
2013-12-07 23:50:00,41.0,29.4,30.09,SW,227,0.0,3.0,63,0.00,,,0.00,VWS V14.01,2013-12-08 06:50:00,
2013-12-07 23:55:00,41.2,29.2,30.09,SW,231,0.0,4.0,62,0.00,,,0.00,VWS V14.01,2013-12-08 06:55:00,